TimeEET,TemperatureF,Dew PointF,Humidity,Sea Level PressureIn,VisibilityMPH,Wind Direction,Wind SpeedMPH,Gust SpeedMPH,PrecipitationIn,Events,Conditions,WindDirDegrees,DateUTC
12:20 AM,55.4,51.8,88,30.01,6.2,Calm,Calm,-,N/A,,Mostly Cloudy,0,2012-11-18 22:20:00
12:50 AM,55.4,51.8,88,30.01,-9999.0,Calm,Calm,-,N/A,,Clear,0,2012-11-18 22:50:00
1:50 AM,55.4,51.8,88,30.01,6.2,Calm,Calm,-,N/A,,Mostly Cloudy,0,2012-11-18 23:50:00
2:00 AM,56,52,83,30.01,6,Calm,Calm,,,,Scattered Clouds,,2012-11-19 00:00:00
2:20 AM,55.4,51.8,88,30.01,6.2,Calm,Calm,-,N/A,,Mostly Cloudy,0,2012-11-19 00:20:00
2:50 AM,55.4,51.8,88,30.01,6.2,Calm,Calm,-,N/A,,Mostly Cloudy,0,2012-11-19 00:50:00
3:50 AM,55.4,50.0,82,29.98,6.2,Calm,Calm,-,N/A,,Mostly Cloudy,0,2012-11-19 01:50:00
4:20 AM,55.4,50.0,82,29.98,6.2,Calm,Calm,-,N/A,,Mostly Cloudy,0,2012-11-19 02:20:00
4:50 AM,55.4,50.0,82,29.98,6.2,Calm,Calm,-,N/A,,Mostly Cloudy,0,2012-11-19 02:50:00
5:20 AM,55.4,50.0,82,29.98,6.2,Calm,Calm,-,N/A,,Mostly Cloudy,0,2012-11-19 03:20:00
5:50 AM,55.4,50.0,82,29.98,6.2,Calm,Calm,-,N/A,,Mostly Cloudy,0,2012-11-19 03:50:00
6:20 AM,55.4,50.0,82,29.98,6.2,Calm,Calm,-,N/A,,Mostly Cloudy,0,2012-11-19 04:20:00
6:50 AM,53.6,50.0,88,29.98,6.2,Calm,Calm,-,N/A,,Mostly Cloudy,0,2012-11-19 04:50:00
7:20 AM,53.6,50.0,88,29.98,6.2,Calm,Calm,-,N/A,,Mostly Cloudy,0,2012-11-19 05:20:00
7:50 AM,55.4,51.8,88,29.98,6.2,Calm,Calm,-,N/A,,Mostly Cloudy,0,2012-11-19 05:50:00
8:00 AM,55,51,83,29.98,6,Calm,Calm,,,,Scattered Clouds,,2012-11-19 06:00:00
8:20 AM,57.2,51.8,82,29.98,6.2,Calm,Calm,-,N/A,,Mostly Cloudy,0,2012-11-19 06:20:00
8:50 AM,57.2,51.8,82,29.98,6.2,Calm,Calm,-,N/A,,Mostly Cloudy,0,2012-11-19 06:50:00
9:20 AM,59.0,51.8,77,29.98,6.2,Calm,Calm,-,N/A,,Mostly Cloudy,0,2012-11-19 07:20:00
9:50 AM,60.8,53.6,77,29.98,6.2,Calm,Calm,-,N/A,,Mostly Cloudy,0,2012-11-19 07:50:00
10:20 AM,64.4,53.6,68,29.98,6.2,Calm,Calm,-,N/A,,Mostly Cloudy,0,2012-11-19 08:20:00
10:50 AM,64.4,50.0,59,29.98,6.2,North,5.8,-,N/A,,Mostly Cloudy,10,2012-11-19 08:50:00
11:20 AM,66.2,51.8,60,29.95,6.2,East,5.8,-,N/A,,Mostly Cloudy,90,2012-11-19 09:20:00
11:50 AM,66.2,51.8,60,29.95,6.2,East,5.8,-,N/A,,Mostly Cloudy,90,2012-11-19 09:50:00
12:20 PM,66.2,51.8,60,29.95,6.2,East,5.8,-,N/A,,Mostly Cloudy,90,2012-11-19 10:20:00
12:50 PM,68.0,50.0,52,29.92,6.2,ESE,5.8,-,N/A,,Mostly Cloudy,120,2012-11-19 10:50:00
1:20 PM,68.0,50.0,52,29.92,6.2,ESE,5.8,-,N/A,,Mostly Cloudy,120,2012-11-19 11:20:00
1:50 PM,64.4,51.8,64,29.92,6.2,East,4.6,-,N/A,Rain,Light Rain,90,2012-11-19 11:50:00
2:00 PM,64,52,55,29.92,6,East,4.6,,,Rain,Light Rain,90,2012-11-19 12:00:00
2:20 PM,62.6,55.4,77,29.89,6.2,NNE,4.6,-,N/A,Rain,Light Rain,20,2012-11-19 12:20:00
2:50 PM,62.6,55.4,77,29.89,6.2,Calm,Calm,-,N/A,Rain,Light Rain,0,2012-11-19 12:50:00
3:20 PM,60.8,55.4,82,29.89,5.6,Calm,Calm,-,N/A,Rain,Light Rain,0,2012-11-19 13:20:00
3:50 PM,60.8,55.4,82,29.92,5.6,Calm,Calm,-,N/A,Rain,Light Rain,0,2012-11-19 13:50:00
4:20 PM,60.8,57.2,88,29.92,5.0,Calm,Calm,-,N/A,Rain,Light Rain,0,2012-11-19 14:20:00
4:50 PM,59.0,55.4,88,29.92,5.0,Calm,Calm,-,N/A,Rain,Light Rain,0,2012-11-19 14:50:00
5:20 PM,59.0,55.4,88,29.92,5.0,Calm,Calm,-,N/A,Rain,Light Rain,0,2012-11-19 15:20:00
5:50 PM,59.0,55.4,88,29.92,6.2,NE,5.8,-,N/A,Rain,Light Rain,50,2012-11-19 15:50:00
7:20 PM,59.0,55.4,88,29.92,5.0,ESE,6.9,-,N/A,Rain,Light Rain,120,2012-11-19 17:20:00
7:50 PM,59.0,55.4,88,29.92,5.0,ESE,9.2,-,N/A,Rain,Light Rain,120,2012-11-19 17:50:00
8:00 PM,59,55,82,29.93,5,ESE,9.2,,,Rain,Light Rain,120,2012-11-19 18:00:00
8:20 PM,59.0,55.4,88,29.92,5.0,ESE,9.2,-,N/A,Rain,Light Rain,120,2012-11-19 18:20:00
8:50 PM,60.8,53.6,77,29.89,6.2,ESE,11.5,-,N/A,,Overcast,120,2012-11-19 18:50:00
9:20 PM,59.0,53.6,82,29.92,6.2,South,5.8,-,N/A,,Overcast,180,2012-11-19 19:20:00
9:50 PM,59.0,53.6,82,29.89,6.2,Calm,Calm,-,N/A,,Overcast,0,2012-11-19 19:50:00
10:20 PM,59.0,53.6,82,29.89,6.2,Calm,Calm,-,N/A,,Overcast,0,2012-11-19 20:20:00
10:50 PM,59.0,53.6,82,29.92,6.2,Calm,Calm,-,N/A,,Overcast,0,2012-11-19 20:50:00
11:20 PM,59.0,53.6,82,29.92,6.2,Calm,Calm,-,N/A,,Overcast,0,2012-11-19 21:20:00